Location: Unspecified
(49.2170°N, 0.0000°E)
Time: 12:36:47
(UTC+00:00)

Transit 4A - Pass Details

Date: 20 June 2019
Orbit: 862 x 982 km, 66.8° (Epoch: 20 July)

Event Time Altitude Azimuth Distance (km) Brightness Sun altitude
Rises 15:53:41 0° 324° (NW) 3,697 11.3 38.2°
Reaches altitude 10° 15:56:27 10° 331° (NNW) 2,744 10.7 37.8°
Maximum altitude 16:02:32 43° 42° (NE) 1,346 8.8 36.8°
Drops below altitude 10° 16:08:31 10° 113° (ESE) 2,689 10.0 35.8°
Sets 16:11:10 0° 120° (ESE) 3,615 10.6 35.4°
